DMSP 5D-2 F13 DEB, 40437

Orbit data source: Space-Track

DMSP 5D-2 F13 DEB, 40437 is space debris in SSO originally from a launch on Fri, 24 Mar 1995 UTC launched from the Air Force Western Test Range (AFWTR). Debris objects in space refer to the collection of defunct objects orbiting the Earth. Examples of debris include non-operational satellites, rocket bodies, and fragments generated from explosions, collisions, or faulty payload assembly.

Loading next visibility...
Identifier
40437, 1995-015AP
Orbit
SSO
Last TLE update
1 day ago
Origin
Manufacturer
Unknown
Mission
Spacecraft
Bus & Motor
Unknown
Mass
Unknown
Launch date (UTC)
1995-03-24 (30 years ago)
Launch vehicle
Unknown
Launch site
Air Force Western Test Range (AFWTR)
Object type
Payload
Rocket body
Debris
Shape & HBR
Unknown
Radar Cross Section
Small (<0.1 m²)

Expand to show TLE details & history

TLE from 1 day ago
0 DMSP 5D-2 F13 DEB
1 40437U 95015AP  25185.88084022  .00010751  00000-0  22188-2 0  9998
2 40437  98.6698 240.2327 0016219  80.0103 280.2925 14.60513977539117
Epoch: 2025-07-04T21:08Z
TLE epoch observation values (Epoch: 2025-07-04T21:08:24.595Z)
Latitude
-0.00004°
Longitude
0.00334°
Altitude
692.455 km
Speed
7.511 km/s
True Right ascension
16h 00m 55s
True Declination
0° 00' 00"
Sunlit
Object was in full shadow at epoch
Visualization orbit readout
Latitude
54.52425°
Longitude
-166.60987°
Altitude
692.721 km
Speed
7.519 km/s
Apparent Right ascension
01h 13m 05s
Apparent Declination
15° 47' 55"
Sunlit
Object is in daylight
Visualization observer readout
Local Sidereal Time
10:18:24
Azimuth
314.61° NW
Elevation
-21.047°
Doppler factor
1
Orbital elements
Apogee altitude
700.079 km
Perigee altitude
677.156 km
Semi-major axis
7,066.755 km
Eccentricity
0.00162
Inclination
98.6698°
RAAN
240.2327°
Arg. of periapsis
80.0103°
True anomaly
Unknown
Mean anomaly
280.2925°
Eccentric anomaly
Unknown
Mean motion
3.65353 °/min
Orbital period
98.53 mins
BSTAR
0.0022188
Loading maneuver chart data...
Loading SW <> Apogee altitude chart data...

DMSP 5D-2 F13 DEB Visibility forecast

Observer location: undefined°, undefined°

Span
Click to sort rows by Start time (UTC) header in descending order
Start Az.
Max El. time (UTC)
Max El. Az.
Max El.
End time (UTC)
End Az.
7 mins2025-07-06 02:52:13.921Z127.693° SE2025-07-06 02:56:13.921Z59.877° ENE27.239°2025-07-06 02:59:13.921Z12.001° NNE
5 mins2025-07-06 04:31:13.921Z226.057° WSW2025-07-06 04:33:13.921Z261.687° W22.637°2025-07-06 04:36:13.921Z311.26° NW
7 mins2025-07-06 16:28:13.921Z18.632° NNE2025-07-06 16:31:13.921Z61.275° ENE43.6°2025-07-06 16:35:13.921Z188.199° SSW
|